TimePST,TemperatureF,Dew PointF,Humidity,Sea Level PressureIn,VisibilityMPH,Wind Direction,Wind SpeedMPH,Gust SpeedMPH,PrecipitationIn,Events,Conditions,WindDirDegrees,DateUTC
12:56 AM,48.0,46.9,96,30.19,0.2,Calm,Calm,-,N/A,Fog,Fog,0,2012-11-19 08:56:00
1:56 AM,46.0,46.0,100,30.19,0.2,Calm,Calm,-,N/A,Fog,Fog,0,2012-11-19 09:56:00
2:56 AM,45.0,45.0,100,30.21,0.2,Calm,Calm,-,N/A,Fog,Fog,0,2012-11-19 10:56:00
3:39 AM,44.6,42.8,93,30.20,0.5,Calm,Calm,-,N/A,Fog,Fog,0,2012-11-19 11:39:00
3:56 AM,43.0,43.0,100,30.22,1.2,Calm,Calm,-,N/A,,Overcast,0,2012-11-19 11:56:00
4:30 AM,42.8,42.8,100,30.21,3.0,Calm,Calm,-,N/A,,Overcast,0,2012-11-19 12:30:00
4:48 AM,42.8,42.8,100,30.21,6.0,Calm,Calm,-,N/A,,Scattered Clouds,0,2012-11-19 12:48:00
4:56 AM,42.1,42.1,100,30.22,5.0,Calm,Calm,-,N/A,,Partly Cloudy,0,2012-11-19 12:56:00
5:56 AM,42.1,42.1,100,30.23,4.0,Calm,Calm,-,N/A,,Scattered Clouds,0,2012-11-19 13:56:00
6:56 AM,42.1,41.0,96,30.24,10.0,Calm,Calm,-,N/A,,Scattered Clouds,0,2012-11-19 14:56:00
7:56 AM,46.0,44.1,93,30.26,10.0,Calm,Calm,-,N/A,,Partly Cloudy,0,2012-11-19 15:56:00
8:56 AM,51.1,46.9,86,30.26,10.0,Calm,Calm,-,N/A,,Clear,0,2012-11-19 16:56:00
9:56 AM,57.0,48.0,72,30.27,10.0,Calm,Calm,-,N/A,,Clear,0,2012-11-19 17:56:00
10:56 AM,64.0,43.0,46,30.26,10.0,Calm,Calm,-,N/A,,Clear,0,2012-11-19 18:56:00
11:56 AM,66.9,42.1,40,30.24,10.0,Calm,Calm,-,N/A,,Clear,0,2012-11-19 19:56:00
12:56 PM,68.0,43.0,40,30.21,10.0,West,5.8,-,N/A,,Clear,280,2012-11-19 20:56:00
1:56 PM,68.0,43.0,40,30.21,10.0,Variable,3.5,-,N/A,,Clear,0,2012-11-19 21:56:00
2:56 PM,66.0,41.0,40,30.22,10.0,NW,11.5,-,N/A,,Clear,310,2012-11-19 22:56:00
3:56 PM,63.0,42.1,46,30.22,10.0,NW,10.4,-,N/A,,Clear,310,2012-11-19 23:56:00
4:56 PM,57.9,45.0,62,30.22,10.0,NNW,10.4,-,N/A,,Clear,330,2012-11-20 00:56:00
5:56 PM,55.9,50.0,80,30.23,10.0,NW,8.1,-,N/A,,Clear,320,2012-11-20 01:56:00
6:56 PM,54.0,51.1,90,30.23,10.0,Calm,Calm,-,N/A,,Clear,0,2012-11-20 02:56:00
7:56 PM,52.0,50.0,93,30.22,10.0,Calm,Calm,-,N/A,,Clear,0,2012-11-20 03:56:00
8:56 PM,50.0,48.9,96,30.22,10.0,Calm,Calm,-,N/A,,Clear,0,2012-11-20 04:56:00
9:56 PM,48.9,46.9,93,30.22,10.0,Calm,Calm,-,N/A,,Clear,0,2012-11-20 05:56:00
10:56 PM,46.9,45.0,93,30.21,10.0,ESE,3.5,-,N/A,,Clear,110,2012-11-20 06:56:00
11:56 PM,46.0,44.1,93,30.21,10.0,Calm,Calm,-,N/A,,Clear,0,2012-11-20 07:56:00